Location: Unspecified
(0.0000°N, 0.0000°E)
Time: 04:16:26
(UTC+00:00)

Explorer 11/Cluster Stage 4 - Visible Passes

Search period start: 21 May 2026 00:00
Search period end: 31 May 2026 00:00
Orbit: 463 x 1174 km, 28.8° (Epoch: 20 May)

Date Brightness Start Highest point End Pass type
(mag) Time Alt. Az. Time Alt. Az. Time Alt. Az.
21 May 7.0 04:31:14 27° S 04:31:14 27° S 04:33:37 10° SSE visible
21 May 10.0 18:58:02 10° NNW 18:59:06 10° NNW 19:00:10 10° N visible
22 May 8.3 04:08:52 12° SSE 04:08:52 12° SSE 04:09:12 10° SSE visible
27 May 9.9 21:55:16 10° NNW 21:55:18 10° NNW 21:55:18 10° NNW visible
28 May 9.6 21:30:09 10° NNW 21:31:43 14° N 21:31:43 14° N visible
29 May 9.3 21:05:06 10° NNW 21:08:08 18° N 21:08:08 18° N visible
30 May 9.0 20:40:05 10° NNW 20:44:34 21° NNE 20:44:34 21° NNE visible
